This is the latest recevied weather packets stored in our database for station/object K6HFP. If no packets are shown the sender has not sent any weather packets the latest 10 day(s).
| Time | Temp. | Humidity | Pressure | Rain* | Wind** | Luminosity | Snow |
|---|---|---|---|---|---|---|---|
| 1777840773 | 16.67° C | 67% | 1010.1 hPa | 0 mm | - | 362 W/m² | - |
| 1777840470 | 16.11° C | 71% | 1010.4 hPa | 0 mm | - | 434 W/m² | - |
| 1777840167 | 16.67° C | 69% | 1010.4 hPa | 0 mm | - | 468 W/m² | - |
| 1777839865 | 16.11° C | 69% | 1010.5 hPa | 0 mm | - | 422 W/m² | - |
| 1777839564 | 16.67° C | 70% | 1010.4 hPa | 0 mm | - | 397 W/m² | - |
| 1777839260 | 16.11° C | 71% | 1010.6 hPa | 0 mm | - | 511 W/m² | - |
| 1777838958 | 16.67° C | 70% | 1010.5 hPa | 0 mm | - | 633 W/m² | - |
| 1777838654 | 16.11° C | 71% | 1010.5 hPa | 0 mm | - | 615 W/m² | - |
| 1777838351 | 16.11° C | 69% | 1010.4 hPa | 0 mm | - | 547 W/m² | - |
| 1777838048 | 16.67° C | 68% | 1010.4 hPa | 0 mm | - | 510 W/m² | - |
| 1777837744 | 16.67° C | 67% | 1010.6 hPa | 0 mm | - | 531 W/m² | - |
| 1777837441 | 16.67° C | 67% | 1010.6 hPa | 0 mm | - | 606 W/m² | - |
| 1777837138 | 16.67° C | 65% | 1010.7 hPa | 0 mm | - | 634 W/m² | - |
| 1777836833 | 16.67° C | 68% | 1010.3 hPa | 0 mm | - | 678 W/m² | - |
| 1777836529 | 16.11° C | 69% | 1010.6 hPa | 0 mm | - | 503 W/m² | - |
| 1777836224 | 16.11° C | 68% | 1010.6 hPa | 0 mm | - | 590 W/m² | - |
| 1777835921 | 16.11° C | 72% | 1010.5 hPa | 0 mm | - | 696 W/m² | - |
| 1777835618 | 16.11° C | 73% | 1010.8 hPa | 0 mm | - | 659 W/m² | - |
| 1777835315 | 15.56° C | 72% | 1010.8 hPa | 0 mm | - | 721 W/m² | - |
| 1777835012 | 15.56° C | 72% | 1010.5 hPa | 0 mm | - | 815 W/m² | - |
| 1777834709 | 15.56° C | 72% | 1010.6 hPa | 0 mm | - | 603 W/m² | - |
| 1777834405 | 16.11° C | 71% | 1010.4 hPa | 0 mm | - | 642 W/m² | - |
| 1777834105 | 16.11° C | 70% | 1010.6 hPa | 0 mm | - | 612 W/m² | - |
| 1777833802 | 16.11° C | 72% | 1010.5 hPa | 0 mm | - | 604 W/m² | - |
| 1777833497 | 15.56° C | 72% | 1010.4 hPa | 0 mm | - | 658 W/m² | - |
* Rain latest hour (hover to see other rain measurements)
** Current wind speed in m/s (hover to see current wind gust speed)